When you browse on this site, cookies collect data to enhance your experience and personalize the content and advertising you see.
Visit our Privacy Policy to learn more. By continuing to use the site, you agree to this use of cookies and data.
  • En España
  • Lista de países
  • Para 7 días
  • Temperatura del agua
  • El tiempo en el mapa
  • Informadores
  • user-avatar
    Iniciar sesión

    Tiempo cada hora Viedma

    Hoy, 3 Junio, Miércoles

    Tiempo Temperatura Precipitaciones Viento Presión Humedad
    00:00 +8°C° 0 mm 4 mps 763 mmHg 78%
    01:00 +8°C° 0 mm 4 mps 764 mmHg 77%
    02:00 +7°C° 0 mm 4 mps 764 mmHg 73%
    03:00 +7°C° 0 mm 4 mps 765 mmHg 74%
    04:00 +8°C° 0 mm 3 mps 765 mmHg 74%
    05:00 +8°C° 0 mm 3 mps 765 mmHg 74%
    06:00 +7°C° 0 mm 2 mps 766 mmHg 72%
    07:00 +7°C° 0 mm 2 mps 766 mmHg 71%
    08:00 +7°C° 0 mm 2 mps 767 mmHg 69%
    09:00 +8°C° 0 mm 2 mps 767 mmHg 63%
    10:00 +10°C° 0 mm 2 mps 768 mmHg 56%
    11:00 +12°C° 0 mm 2 mps 768 mmHg 49%
    12:00 +12°C° 0 mm 1 mps 768 mmHg 48%
    13:00 +13°C° 0 mm 1 mps 768 mmHg 46%
    14:00 +13°C° 0 mm 1 mps 767 mmHg 45%
    15:00 +12°C° 0 mm 1 mps 767 mmHg 49%
    16:00 +10°C° 0 mm 2 mps 766 mmHg 54%
    17:00 +9°C° 0 mm 3 mps 766 mmHg 59%
    18:00 +9°C° 0 mm 3 mps 766 mmHg 63%
    19:00 +8°C° 0 mm 3 mps 766 mmHg 67%
    20:00 +6°C° 0 mm 4 mps 766 mmHg 71%
    21:00 +6°C° 0 mm 4 mps 765 mmHg 75%
    22:00 +6°C° 0 mm 5 mps 765 mmHg 80%
    23:00 +6°C° 0 mm 5 mps 765 mmHg 84%

    Mañana, 4 Junio, Jueves

    Tiempo Temperatura Precipitaciones Viento Presión Humedad
    00:00 +5°C° 0 mm 6 mps 764 mmHg 86%
    01:00 +5°C° 0 mm 6 mps 763 mmHg 87%
    02:00 +5°C° 0 mm 6 mps 763 mmHg 89%
    03:00 +5°C° 0 mm 6 mps 762 mmHg 89%
    04:00 +5°C° 0 mm 6 mps 762 mmHg 90%
    05:00 +5°C° 0 mm 6 mps 762 mmHg 90%
    06:00 +5°C° 0 mm 6 mps 762 mmHg 89%
    07:00 +5°C° 0 mm 7 mps 761 mmHg 88%
    08:00 +6°C° 0 mm 7 mps 761 mmHg 87%
    09:00 +7°C° 0 mm 8 mps 761 mmHg 78%
    10:00 +10°C° 0 mm 9 mps 761 mmHg 69%
    11:00 +12°C° 0 mm 10 mps 761 mmHg 60%
    12:00 +12°C° 0 mm 10 mps 760 mmHg 57%
    13:00 +13°C° 0 mm 10 mps 760 mmHg 55%
    14:00 +15°C° 0 mm 9 mps 759 mmHg 53%
    15:00 +13°C° 0 mm 8 mps 759 mmHg 56%
    16:00 +12°C° 0 mm 7 mps 759 mmHg 58%
    17:00 +11°C° 0 mm 6 mps 758 mmHg 61%
    18:00 +11°C° 0 mm 6 mps 758 mmHg 64%
    19:00 +11°C° 0 mm 6 mps 758 mmHg 67%
    20:00 +10°C° 0 mm 6 mps 758 mmHg 70%
    21:00 +10°C° 0 mm 6 mps 758 mmHg 71%
    22:00 +9°C° 0 mm 5 mps 758 mmHg 73%
    23:00 +9°C° 0 mm 5 mps 758 mmHg 75%

    Pasado mañana, 5 Junio, Viernes

    Tiempo Temperatura Precipitaciones Viento Presión Humedad
    00:00 +9°C° 0 mm 5 mps 758 mmHg 75%
    01:00 +9°C° 0 mm 6 mps 758 mmHg 75%
    02:00 +9°C° 0 mm 6 mps 758 mmHg 74%
    03:00 +8°C° 0 mm 6 mps 758 mmHg 75%
    04:00 +8°C° 0 mm 6 mps 758 mmHg 75%
    05:00 +8°C° 0 mm 6 mps 757 mmHg 75%
    06:00 +8°C° 0 mm 7 mps 757 mmHg 75%
    07:00 +8°C° 0 mm 7 mps 757 mmHg 75%
    08:00 +6°C° 0 mm 7 mps 757 mmHg 75%
    09:00 +9°C° 0 mm 7 mps 757 mmHg 69%
    10:00 +11°C° 0 mm 7 mps 757 mmHg 62%
    11:00 +12°C° 0 mm 7 mps 757 mmHg 55%
    12:00 +14°C° 0 mm 7 mps 757 mmHg 51%
    13:00 +15°C° 0 mm 8 mps 756 mmHg 46%
    14:00 +16°C° 0 mm 8 mps 756 mmHg 42%
    15:00 +15°C° 0 mm 7 mps 756 mmHg 46%
    16:00 +14°C° 0 mm 7 mps 756 mmHg 50%
    17:00 +13°C° 0 mm 6 mps 756 mmHg 54%
    18:00 +13°C° 0 mm 6 mps 756 mmHg 56%
    19:00 +11°C° 0 mm 6 mps 756 mmHg 58%
    20:00 +11°C° 0 mm 6 mps 756 mmHg 60%
    21:00 +10°C° 0 mm 5 mps 756 mmHg 62%
    22:00 +10°C° 0 mm 5 mps 756 mmHg 64%
    23:00 +9°C° 0 mm 5 mps 756 mmHg 67%

    6 Junio, Sábado

    Tiempo Temperatura Precipitaciones Viento Presión Humedad
    00:00 +9°C° 0 mm 5 mps 756 mmHg 69%
    01:00 +9°C° 0 mm 5 mps 756 mmHg 71%
    02:00 +9°C° 0 mm 5 mps 756 mmHg 73%
    03:00 +9°C° 0 mm 5 mps 755 mmHg 74%
    04:00 +9°C° 0 mm 6 mps 755 mmHg 74%
    05:00 +9°C° 0 mm 6 mps 755 mmHg 74%
    06:00 +9°C° 0 mm 6 mps 754 mmHg 73%
    07:00 +8°C° 0 mm 7 mps 754 mmHg 72%
    08:00 +8°C° 0 mm 7 mps 754 mmHg 72%
    09:00 +10°C° 0 mm 7 mps 754 mmHg 66%
    10:00 +11°C° 0 mm 8 mps 754 mmHg 61%
    11:00 +12°C° 0 mm 9 mps 754 mmHg 55%
    12:00 +13°C° 0 mm 9 mps 754 mmHg 52%
    13:00 +14°C° 0 mm 10 mps 753 mmHg 50%
    14:00 +16°C° 0 mm 10 mps 753 mmHg 47%
    15:00 +15°C° 0 mm 9 mps 754 mmHg 44%
    16:00 +15°C° 0 mm 9 mps 754 mmHg 41%
    17:00 +15°C° 0 mm 8 mps 754 mmHg 38%
    18:00 +12°C° 0 mm 7 mps 756 mmHg 42%
    19:00 +12°C° 0 mm 5 mps 757 mmHg 47%
    20:00 +11°C° 0 mm 4 mps 758 mmHg 51%
    21:00 +10°C° 0 mm 3 mps 758 mmHg 55%
    22:00 +10°C° 0 mm 3 mps 759 mmHg 59%
    23:00 +9°C° 0 mm 2 mps 759 mmHg 63%

    7 Junio, Domingo

    Tiempo Temperatura Precipitaciones Viento Presión Humedad
    00:00 +9°C° 0 mm 2 mps 759 mmHg 62%
    01:00 +8°C° 0 mm 2 mps 760 mmHg 61%
    02:00 +8°C° 0 mm 2 mps 760 mmHg 60%
    03:00 +8°C° 0 mm 2 mps 760 mmHg 60%
    04:00 +7°C° 0 mm 2 mps 760 mmHg 60%
    05:00 +7°C° 0 mm 2 mps 760 mmHg 60%
    06:00 +7°C° 0 mm 2 mps 761 mmHg 59%
    07:00 +7°C° 0 mm 2 mps 761 mmHg 59%
    08:00 +7°C° 0 mm 3 mps 761 mmHg 58%
    09:00 +8°C° 0 mm 3 mps 761 mmHg 53%
    10:00 +10°C° 0 mm 4 mps 761 mmHg 48%
    11:00 +10°C° 0 mm 5 mps 761 mmHg 42%
    12:00 +12°C° 0 mm 5 mps 761 mmHg 40%
    13:00 +13°C° 0 mm 5 mps 760 mmHg 38%
    14:00 +13°C° 0 mm 5 mps 760 mmHg 36%
    15:00 +12°C° 0 mm 5 mps 760 mmHg 40%
    16:00 +11°C° 0 mm 4 mps 759 mmHg 44%
    17:00 +10°C° 0 mm 4 mps 759 mmHg 48%
    18:00 +10°C° 0 mm 4 mps 759 mmHg 50%
    19:00 +10°C° 0 mm 4 mps 759 mmHg 52%
    20:00 +8°C° 0 mm 5 mps 758 mmHg 55%
    21:00 +8°C° 0 mm 5 mps 758 mmHg 56%
    22:00 +8°C° 0 mm 5 mps 758 mmHg 57%
    23:00 +8°C° 0 mm 5 mps 758 mmHg 58%

    8 Junio, Lunes

    Tiempo Temperatura Precipitaciones Viento Presión Humedad
    00:00 +8°C° 0 mm 5 mps 757 mmHg 64%
    01:00 +8°C° 0 mm 5 mps 757 mmHg 69%
    02:00 +8°C° 0 mm 5 mps 757 mmHg 75%
    03:00 +8°C° 0 mm 5 mps 756 mmHg 81%
    04:00 +8°C° 0 mm 4 mps 756 mmHg 87%
    05:00 +7°C° 0 mm 4 mps 756 mmHg 93%
    06:00 +7°C° 0 mm 4 mps 756 mmHg 93%
    07:00 +7°C° 0 mm 4 mps 756 mmHg 94%
    08:00 +7°C° 0 mm 4 mps 756 mmHg 94%
    09:00 +8°C° 0 mm 4 mps 755 mmHg 86%
    10:00 +11°C° 0 mm 4 mps 755 mmHg 79%
    11:00 +12°C° 0 mm 5 mps 755 mmHg 71%
    12:00 +13°C° 0 mm 4 mps 755 mmHg 65%
    13:00 +14°C° 0 mm 4 mps 754 mmHg 59%
    14:00 +15°C° 0 mm 4 mps 753 mmHg 53%
    15:00 +14°C° 0 mm 4 mps 753 mmHg 57%
    16:00 +13°C° 0 mm 4 mps 753 mmHg 61%
    17:00 +12°C° 0 mm 4 mps 752 mmHg 66%
    18:00 +11°C° 0 mm 3 mps 752 mmHg 66%
    19:00 +10°C° 0 mm 3 mps 752 mmHg 65%
    20:00 +10°C° 0 mm 3 mps 752 mmHg 65%
    21:00 +9°C° 0 mm 3 mps 752 mmHg 66%
    22:00 +9°C° 0 mm 3 mps 752 mmHg 67%
    23:00 +9°C° 0 mm 3 mps 751 mmHg 68%
    Mostrar más